Meteo orario Allan

Oggi, 21 Ottobre, Mercoledi

Tempo Temperatura Precipitazioni Vento Pressione Umidità
00:00 -8°C° 0 mm 2 m/s 715 mm Hg 80%
01:00 -9°C° 0 mm 2 m/s 715 mm Hg 82%
02:00 -9°C° 0 mm 2 m/s 715 mm Hg 83%
03:00 -9°C° 0 mm 2 m/s 715 mm Hg 85%
04:00 -8°C° 0 mm 1 m/s 715 mm Hg 86%
05:00 -8°C° 0 mm 1 m/s 716 mm Hg 87%
06:00 -8°C° 0 mm 1 m/s 716 mm Hg 85%
07:00 -7°C° 0 mm 1 m/s 716 mm Hg 82%
08:00 -7°C° 0 mm 1 m/s 716 mm Hg 80%
09:00 -4°C° 0 mm 1 m/s 716 mm Hg 73%
10:00 -3°C° 0 mm 1 m/s 717 mm Hg 66%
11:00 -1°C° 0 mm 1 m/s 717 mm Hg 59%
12:00 -3°C° 0 mm 2 m/s 717 mm Hg 55%
13:00 -2°C° 0 mm 2 m/s 717 mm Hg 51%
14:00 -1°C° 0 mm 2 m/s 717 mm Hg 47%
15:00 -2°C° 0 mm 2 m/s 717 mm Hg 51%
16:00 -4°C° 0 mm 2 m/s 717 mm Hg 55%
17:00 -5°C° 0 mm 2 m/s 718 mm Hg 60%
18:00 -5°C° 0 mm 2 m/s 718 mm Hg 61%
19:00 -6°C° 0 mm 2 m/s 719 mm Hg 63%
20:00 -7°C° 0 mm 3 m/s 719 mm Hg 64%
21:00 -7°C° 0 mm 3 m/s 720 mm Hg 65%
22:00 -8°C° 0 mm 3 m/s 720 mm Hg 66%
23:00 -8°C° 0 mm 3 m/s 721 mm Hg 67%

Domani, 22 Ottobre, Giovedi

Tempo Temperatura Precipitazioni Vento Pressione Umidità
00:00 -9°C° 0 mm 3 m/s 721 mm Hg 71%
01:00 -10°C° 0 mm 3 m/s 721 mm Hg 74%
02:00 -10°C° 0 mm 3 m/s 722 mm Hg 78%
03:00 -10°C° 0 mm 3 m/s 722 mm Hg 81%
04:00 -12°C° 0 mm 3 m/s 722 mm Hg 85%
05:00 -12°C° 0 mm 3 m/s 722 mm Hg 89%
06:00 -12°C° 0 mm 3 m/s 723 mm Hg 87%
07:00 -12°C° 0 mm 3 m/s 723 mm Hg 85%
08:00 -11°C° 0 mm 4 m/s 724 mm Hg 84%
09:00 -10°C° 0 mm 4 m/s 724 mm Hg 75%
10:00 -9°C° 0 mm 4 m/s 724 mm Hg 67%
11:00 -8°C° 0 mm 4 m/s 724 mm Hg 58%
12:00 -7°C° 0 mm 4 m/s 724 mm Hg 56%
13:00 -7°C° 0 mm 4 m/s 724 mm Hg 54%
14:00 -7°C° 0 mm 5 m/s 724 mm Hg 51%
15:00 -7°C° 0 mm 4 m/s 724 mm Hg 55%
16:00 -7°C° 0 mm 3 m/s 724 mm Hg 59%
17:00 -8°C° 0 mm 3 m/s 724 mm Hg 62%
18:00 -8°C° 0 mm 3 m/s 724 mm Hg 64%
19:00 -9°C° 0 mm 3 m/s 724 mm Hg 66%
20:00 -10°C° 0 mm 3 m/s 724 mm Hg 68%
21:00 -10°C° 0 mm 3 m/s 724 mm Hg 71%
22:00 -10°C° 0 mm 3 m/s 724 mm Hg 73%
23:00 -12°C° 0 mm 3 m/s 724 mm Hg 75%

Dopodomani, 23 Ottobre, Venerdi

Tempo Temperatura Precipitazioni Vento Pressione Umidità
00:00 -12°C° 0 mm 3 m/s 724 mm Hg 77%
01:00 -12°C° 0 mm 3 m/s 724 mm Hg 80%
02:00 -13°C° 0 mm 3 m/s 724 mm Hg 82%
03:00 -13°C° 0 mm 3 m/s 724 mm Hg 84%
04:00 -13°C° 0 mm 3 m/s 724 mm Hg 85%
05:00 -13°C° 0 mm 3 m/s 724 mm Hg 87%
06:00 -13°C° 0 mm 3 m/s 724 mm Hg 85%
07:00 -13°C° 0 mm 3 m/s 724 mm Hg 83%
08:00 -14°C° 0 mm 4 m/s 724 mm Hg 80%
09:00 -11°C° 0 mm 4 m/s 724 mm Hg 73%
10:00 -10°C° 0 mm 4 m/s 724 mm Hg 65%
11:00 -9°C° 0 mm 4 m/s 724 mm Hg 57%
12:00 -8°C° 0 mm 4 m/s 723 mm Hg 55%
13:00 -8°C° 0 mm 4 m/s 723 mm Hg 53%
14:00 -7°C° 0 mm 5 m/s 723 mm Hg 50%
15:00 -8°C° 0 mm 4 m/s 723 mm Hg 54%
16:00 -8°C° 0 mm 3 m/s 723 mm Hg 59%
17:00 -9°C° 0 mm 3 m/s 723 mm Hg 63%
18:00 -9°C° 0 mm 3 m/s 723 mm Hg 65%
19:00 -10°C° 0 mm 3 m/s 723 mm Hg 68%
20:00 -10°C° 0 mm 3 m/s 723 mm Hg 70%
21:00 -10°C° 0 mm 3 m/s 724 mm Hg 73%
22:00 -12°C° 0 mm 3 m/s 724 mm Hg 76%
23:00 -12°C° 0 mm 3 m/s 724 mm Hg 79%

24 Ottobre, Sabato

Tempo Temperatura Precipitazioni Vento Pressione Umidità
00:00 -12°C° 0 mm 3 m/s 724 mm Hg 82%
01:00 -13°C° 0 mm 3 m/s 724 mm Hg 85%
02:00 -13°C° 0 mm 3 m/s 724 mm Hg 88%
03:00 -13°C° 0 mm 3 m/s 724 mm Hg 90%
04:00 -13°C° 0 mm 3 m/s 724 mm Hg 91%
05:00 -13°C° 0 mm 3 m/s 724 mm Hg 93%
06:00 -13°C° 0 mm 3 m/s 724 mm Hg 92%
07:00 -12°C° 0 mm 3 m/s 724 mm Hg 90%
08:00 -12°C° 0 mm 3 m/s 725 mm Hg 89%
09:00 -10°C° 0 mm 3 m/s 725 mm Hg 82%
10:00 -8°C° 0 mm 3 m/s 724 mm Hg 74%
11:00 -7°C° 0 mm 3 m/s 724 mm Hg 67%
12:00 -7°C° 0 mm 3 m/s 724 mm Hg 64%
13:00 -7°C° 0 mm 4 m/s 724 mm Hg 60%
14:00 -7°C° 0 mm 4 m/s 723 mm Hg 57%
15:00 -7°C° 0 mm 3 m/s 723 mm Hg 60%
16:00 -7°C° 0 mm 3 m/s 723 mm Hg 64%
17:00 -8°C° 0 mm 3 m/s 723 mm Hg 68%
18:00 -8°C° 0 mm 3 m/s 723 mm Hg 69%
19:00 -9°C° 0 mm 3 m/s 723 mm Hg 71%
20:00 -9°C° 0 mm 3 m/s 723 mm Hg 73%
21:00 -9°C° 0 mm 3 m/s 723 mm Hg 73%
22:00 -9°C° 0 mm 3 m/s 723 mm Hg 73%
23:00 -9°C° 0 mm 3 m/s 723 mm Hg 74%

25 Ottobre, Domenica

Tempo Temperatura Precipitazioni Vento Pressione Umidità
00:00 -9°C° 0 mm 3 m/s 723 mm Hg 73%
01:00 -10°C° 0 mm 4 m/s 723 mm Hg 73%
02:00 -10°C° 0 mm 4 m/s 723 mm Hg 73%
03:00 -10°C° 0 mm 4 m/s 723 mm Hg 74%
04:00 -11°C° 0 mm 4 m/s 723 mm Hg 75%
05:00 -11°C° 0 mm 4 m/s 722 mm Hg 75%
06:00 -11°C° 0 mm 4 m/s 722 mm Hg 75%
07:00 -11°C° 0 mm 4 m/s 722 mm Hg 75%
08:00 -11°C° 0 mm 4 m/s 723 mm Hg 74%
09:00 -10°C° 0 mm 4 m/s 722 mm Hg 69%
10:00 -9°C° 0 mm 4 m/s 722 mm Hg 63%
11:00 -8°C° 0 mm 4 m/s 722 mm Hg 58%
12:00 -7°C° 0 mm 4 m/s 722 mm Hg 55%
13:00 -7°C° 0 mm 4 m/s 722 mm Hg 53%
14:00 -5°C° 0 mm 4 m/s 722 mm Hg 51%
15:00 -6°C° 0 mm 3 m/s 722 mm Hg 56%
16:00 -7°C° 0 mm 3 m/s 722 mm Hg 60%
17:00 -7°C° 0 mm 2 m/s 722 mm Hg 64%
18:00 -7°C° 0 mm 2 m/s 722 mm Hg 66%
19:00 -8°C° 0 mm 2 m/s 722 mm Hg 68%
20:00 -8°C° 0 mm 2 m/s 722 mm Hg 70%
21:00 -8°C° 0 mm 2 m/s 722 mm Hg 71%
22:00 -10°C° 0 mm 3 m/s 722 mm Hg 72%
23:00 -10°C° 0 mm 3 m/s 722 mm Hg 74%

26 Ottobre, Lunedi

Tempo Temperatura Precipitazioni Vento Pressione Umidità
00:00 -10°C° 0 mm 3 m/s 722 mm Hg 74%
01:00 -12°C° 0 mm 3 m/s 722 mm Hg 75%
02:00 -12°C° 0 mm 3 m/s 722 mm Hg 75%
03:00 -12°C° 0 mm 3 m/s 722 mm Hg 75%
04:00 -12°C° 0 mm 3 m/s 722 mm Hg 74%
05:00 -12°C° 0 mm 3 m/s 721 mm Hg 74%
06:00 -12°C° 0 mm 4 m/s 721 mm Hg 73%
07:00 -12°C° 0 mm 4 m/s 721 mm Hg 73%
08:00 -13°C° 0 mm 5 m/s 720 mm Hg 72%
09:00 -11°C° 0 mm 5 m/s 720 mm Hg 62%
10:00 -8°C° 0 mm 5 m/s 719 mm Hg 52%
11:00 -8°C° 0 mm 6 m/s 718 mm Hg 42%
12:00 -6°C° 0 mm 6 m/s 718 mm Hg 39%
13:00 -5°C° 0 mm 6 m/s 717 mm Hg 35%
14:00 -5°C° 0 mm 6 m/s 716 mm Hg 32%
15:00 -5°C° 0 mm 5 m/s 715 mm Hg 35%
16:00 -6°C° 0 mm 5 m/s 715 mm Hg 39%
17:00 -7°C° 0 mm 4 m/s 714 mm Hg 42%
18:00 -7°C° 0 mm 4 m/s 714 mm Hg 46%
19:00 -8°C° 0 mm 4 m/s 714 mm Hg 50%
20:00 -8°C° 0 mm 4 m/s 714 mm Hg 54%
21:00 -8°C° 0 mm 3 m/s 714 mm Hg 59%
22:00 -8°C° 0 mm 3 m/s 714 mm Hg 64%
23:00 -9°C° 0 mm 3 m/s 714 mm Hg 69%

27 Ottobre, Martedi

Tempo Temperatura Precipitazioni Vento Pressione Umidità
00:00 -9°C° 0 mm 3 m/s 713 mm Hg 71%
01:00 -8°C° 0 mm 2 m/s 713 mm Hg 72%
02:00 -8°C° 0 mm 2 m/s 713 mm Hg 74%
03:00 -7°C° 0 mm 2 m/s 712 mm Hg 72%
04:00 -7°C° 0 mm 2 m/s 712 mm Hg 71%
05:00 -8°C° 0 mm 3 m/s 711 mm Hg 69%
06:00 -7°C° 0.2 mm 3 m/s 710 mm Hg 77%
07:00 -8°C° 0.2 mm 4 m/s 709 mm Hg 84%
08:00 -8°C° 0.2 mm 5 m/s 708 mm Hg 92%
09:00 -5°C° 0.9 mm 6 m/s 707 mm Hg 93%
10:00 -3°C° 0.9 mm 7 m/s 707 mm Hg 95%
11:00 -1°C° 0.9 mm 7 m/s 706 mm Hg 96%
12:00 0°C° 0.1 mm 7 m/s 706 mm Hg 94%
13:00 +2°C° 0.1 mm 7 m/s 706 mm Hg 91%
14:00 +3°C° 0.1 mm 7 m/s 705 mm Hg 89%
15:00 +3°C° 0.1 mm 7 m/s 706 mm Hg 87%
16:00 +3°C° 0.1 mm 6 m/s 706 mm Hg 86%
17:00 +3°C° 0.1 mm 6 m/s 707 mm Hg 85%
18:00 +2°C° 0.1 mm 5 m/s 708 mm Hg 86%
19:00 +2°C° 0.1 mm 5 m/s 709 mm Hg 88%
20:00 +1°C° 0.1 mm 5 m/s 710 mm Hg 89%
21:00 0°C° 0.1 mm 4 m/s 711 mm Hg 90%
22:00 -1°C° 0.1 mm 4 m/s 712 mm Hg 91%
23:00 -2°C° 0.1 mm 3 m/s 713 mm Hg 93%
Mostrare altro

Abbiamo bisogno del tuo consenso

Meteoprog e i nostri fornitori di servizi possono memorizzare e accedere a dati personali come cookie, identificatori di dispositivi o altre tecnologie simili sul tuo dispositivo e possono elaborare tali dati per personalizzare i contenuti e gli annunci, nonché fornire funzionalità dei social media e analizzarne il traffico.

  • Archiviare e/o accedere alle informazioni sul tuo dispositivo

    Cookie, identificatori di dispositivi o altre informazioni possono essere memorizzati o resi accessibili sul tuo dispositivo per le finalità sopra indicate.

  • Annunci e contenuti personalizzati, misurazione di annunci e contenuti, approfondimenti sul pubblico e sviluppo di prodotti

    Gli annunci e i contenuti possono essere personalizzati in base a un profilo. È possibile aggiungere più dati per personalizzare meglio annunci e contenuti. È possibile misurare il rendimento degli annunci e dei contenuti. È possibile ricavare informazioni sul pubblico che ha visto gli annunci e i contenuti. Tali dati possono essere utilizzati per sviluppare o migliorare l'esperienza, i sistemi e il software dell'utente.

Cliccando su “Accetto”, acconsenti all'uso di cookie, identificatori di dispositivo, web beacon o altre tecnologie simili. Puoi modificare le impostazioni nel browser del tuo dispositivo.

Per determinati scopi, è possibile fare affidamento su interessi legali, piuttosto che sul consenso. Puoi approfondire questo argomento consultando la nostra Informativa sulla privacy e sui cookie.